Helicity
72 56 59 81 72 62 77 65 43 33 20 17 9 -5 -30 -4 23 18 33 26 23 20 22 26 31 37 39 37 40 44 45 50 55
86 84 91 96 70 63 61 55 43 30 19 17 4 -28 -5 4 17 22 21 17 20 19 24 28 34 33 37 37 40 40 49 50 44
114 103 97 104 69 51 52 49 43 28 20 19 -7 -12 28 15 27 26 22 18 21 25 26 26 31 32 37 38 42 43 43 39 46
105 97 94 93 71 57 59 44 36 26 27 14 -14 1 72 18 12 10 9 20 28 25 24 27 29 31 36 37 38 41 44 43 49
101 109 91 91 85 78 72 41 30 25 25 8 -11 -22 -9 18 24 30 18 24 28 26 20 25 27 31 33 37 40 40 43 47 48
83 82 106 105 106 90 68 39 36 30 23 -6 -36 -27 7 13 19 19 20 23 22 23 16 17 20 22 27 33 38 43 49 49 48
84 107 115 97 104 84 59 36 26 -7 9 -10 -26 -16 11 17 24 22 13 15 13 12 12 9 13 19 25 29 32 39 42 45 47
143 109 93 82 74 61 46 24 -3 -5 -0 -3 -3 3 13 10 15 13 2 7 9 7 8 10 14 19 22 24 27 32 34 34 34
110 92 75 64 50 46 30 6 4 -5 -4 1 2 2 4 4 5 7 2 9 12 11 15 16 20 22 21 22 26 30 29 29 29
82 78 89 56 52 31 17 13 8 6 1 2 2 2 -2 6 1 11 12 11 18 20 24 25 27 29 32 32 30 28 29 26 21
106 91 83 67 64 38 20 20 11 12 3 -3 -3 -6 -2 -0 8 25 19 19 20 25 32 34 36 38 46 44 36 31 30 30 21
163 144 95 100 59 31 31 26 20 9 -3 -14 -13 -8 -1 1 9 21 46 41 32 28 41 48 49 49 52 50 44 35 32 20 26
115 175 140 91 76 58 47 32 17 -1 -1 -3 -2 5 8 11 21 31 33 50 53 52 39 48 60 63 61 58 56 44 39 33 30
75 159 116 80 95 78 53 33 14 7 6 10 12 12 16 17 24 29 35 43 48 66 99 71 64 61 60 56 60 60 57 53 49
69 123 92 109 98 73 54 30 36 18 19 16 13 14 17 21 30 27 32 45 64 46 70 95 88 72 55 44 40 44 61 69 65
100 130 123 114 90 71 48 55 33 45 56 24 19 23 27 28 30 48 38 51 61 53 67 97 109 108 89 67 39 33 32 47 54
131 168 164 102 94 59 46 36 51 49 56 39 57 42 57 51 40 32 41 71 49 52 74 93 102 84 119 73 66 61 53 61 85
192 136 149 103 98 71 59 69 64 67 69 76 96 70 99 78 62 59 83 54 62 49 88 92 89 88 87 106 93 85 105 126 136
193 157 125 103 115 92 94 92 79 88 75 91 91 104 114 78 66 86 42 46 78 102 81 104 109 146 129 153 171 152 163 193 249
163 144 135 125 134 122 104 110 100 112 140 111 115 102 92 39 45 32 52 46 101 104 118 135 158 174 174 155 152 158 172 267 339
Wind_Speed
24 20 15 20 25 27 29 31 34 36 37 36 35 36 34 26 27 27 27 33 39 42 44 47 49 51 52 54 55 56 56 57 57
20 17 17 18 23 25 27 28 31 34 35 33 34 34 18 29 29 26 28 33 38 41 43 45 47 49 51 51 53 54 55 55 55
15 18 17 18 20 21 21 23 27 33 33 32 33 29 18 27 26 25 27 31 35 38 41 43 45 46 48 49 50 52 53 53 54
17 16 14 17 18 17 17 19 24 31 32 32 31 19 13 24 24 26 26 28 32 35 38 40 42 44 45 47 48 50 51 51 52
17 12 9 12 14 13 14 16 22 28 31 31 31 29 21 23 21 21 24 27 29 32 35 37 39 41 43 45 46 47 48 49 50
16 10 10 13 13 11 12 16 20 25 27 29 33 28 22 21 22 23 24 26 28 30 32 35 37 39 41 43 44 45 46 47 48
14 12 13 13 11 9 11 15 22 25 24 25 25 23 21 21 21 23 24 25 27 29 31 33 35 37 39 41 42 43 44 44 46
15 13 14 12 10 5 7 15 18 18 21 22 19 21 21 21 22 22 23 25 27 28 30 31 33 35 37 39 40 41 42 43 44
17 17 16 13 10 9 9 12 9 13 15 15 18 20 20 20 22 22 23 25 26 27 28 30 31 33 35 37 39 40 41 41 42
21 19 18 15 12 11 11 4 8 8 11 13 14 16 19 21 22 22 22 23 24 25 26 27 28 30 32 34 36 38 39 40 40
24 23 20 17 13 11 8 5 3 3 7 10 12 15 17 19 20 22 21 21 22 22 23 24 25 26 28 30 32 34 35 36 36
25 27 21 18 14 12 8 6 3 2 5 8 10 13 16 18 19 20 19 18 18 18 19 20 21 23 25 26 28 30 31 32 32
28 30 24 18 15 14 11 8 5 3 4 7 11 14 16 17 18 19 20 19 19 17 18 18 18 19 20 22 24 26 27 27 29
30 34 27 20 17 17 14 12 8 6 7 10 14 17 19 20 21 20 20 21 23 22 14 13 16 15 15 17 19 21 23 23 24
30 34 29 23 20 19 18 14 13 9 11 14 17 20 22 24 25 25 26 28 24 26 27 20 18 13 14 13 16 19 16 20 20
34 32 29 27 24 23 20 18 13 16 16 15 20 24 27 29 29 29 31 28 28 28 26 24 24 19 14 15 12 13 17 24 23
34 33 29 28 25 24 21 16 16 15 15 20 25 27 22 26 27 29 32 33 34 29 28 26 18 19 17 7 7 9 12 22 27
38 31 32 29 27 25 22 20 18 18 18 25 29 28 31 35 28 33 35 34 35 33 38 36 16 14 13 15 19 21 29 37 37
36 32 31 29 27 25 24 22 21 21 21 25 31 35 40 44 49 34 35 36 47 46 46 39 29 23 21 23 26 31 36 43 46
39 35 32 28 27 27 25 24 24 26 29 28 28 31 38 43 41 52 56 61 51 52 50 43 36 26 25 21 24 28 34 41 44
Wind_Direction
113 101 89 88 90 85 82 78 74 72 71 70 69 70 62 33 37 38 33 40 49 50 51 51 51 51 52 52 50 50 47 45 44
118 109 100 95 96 89 84 78 72 72 71 69 73 70 10 48 44 37 39 45 50 52 51 50 50 50 51 50 48 48 47 42 43
130 119 108 104 102 91 82 72 68 74 73 70 73 59 16 44 40 35 37 44 48 47 49 49 49 48 47 47 46 46 45 45 42
140 128 118 114 107 94 81 67 67 76 75 74 71 32 313 41 39 41 36 39 43 44 47 46 46 45 43 44 44 45 44 42 40
151 142 136 130 118 99 80 69 72 78 78 77 74 62 31 36 25 19 31 36 38 40 41 42 42 41 41 40 40 40 42 39 37
162 158 146 135 125 106 83 78 78 78 76 79 85 65 38 26 23 28 33 37 38 38 38 40 42 41 40 39 40 40 39 37 35
180 173 155 139 131 111 92 86 89 84 77 78 68 53 37 24 22 33 35 38 38 38 39 40 41 40 38 38 37 37 36 35 34
185 184 168 154 143 140 104 100 91 83 80 79 46 52 35 27 29 35 36 38 40 40 39 39 39 38 37 36 35 34 34 32 32
197 186 181 175 172 151 130 108 82 81 74 56 54 49 37 30 33 38 35 40 39 39 40 41 38 36 34 33 32 33 32 30 28
205 193 190 188 179 163 144 121 96 74 66 53 42 32 39 38 38 45 44 39 42 42 40 37 34 33 33 31 30 30 29 25 25
212 204 194 188 191 184 178 167 123 58 42 37 34 31 30 34 31 39 42 38 35 35 33 31 29 28 28 27 25 26 26 27 28
205 211 196 204 193 177 188 191 240 322 16 16 19 23 27 23 23 20 31 31 30 27 24 22 20 18 18 18 20 20 22 22 26
212 208 208 198 204 205 212 211 216 271 341 358 359 354 355 359 4 4 1 9 9 6 1 3 6 8 9 9 10 11 14 20 22
213 204 210 195 207 219 223 231 235 266 308 328 335 336 341 342 344 349 351 350 348 353 0 354 353 357 358 357 355 358 5 8 10
203 202 208 211 217 223 230 231 253 274 297 315 324 330 331 333 334 336 335 335 341 339 341 349 341 337 340 338 340 343 349 351 355
199 205 209 216 222 228 229 238 246 274 295 317 323 322 323 323 328 331 330 334 335 336 337 338 338 336 321 318 317 326 340 349 351
204 209 212 213 223 226 227 232 253 275 290 312 319 326 333 335 334 332 330 333 332 334 335 334 338 338 343 328 246 253 314 334 340
216 209 217 218 226 227 231 242 257 272 292 296 310 319 319 325 339 335 332 338 340 334 332 333 338 343 349 353 350 339 334 332 336
213 215 217 219 229 231 238 249 261 278 287 299 296 302 313 316 317 330 335 335 331 328 326 330 337 337 345 350 348 342 338 330 329
220 219 222 221 230 237 241 250 261 274 284 293 302 305 314 314 318 313 308 309 325 324 327 328 330 342 344 344 343 340 335 333 333